Weather Roundup
Issued by NWS Chicago, IL

Home | Current Version | Previous Version | Graphics & Text | Print | Product List | Glossary On
Versions: 1 2 3 4 5 6 7 8 9 10 11 12 13 14 15 16 17 18 19 20 21 22 23 24 25 26 27 28 29 30 31 32 33 34 35 36 37 38 39 40 41 42 43 44 45 46 47 48 49 50
678
NZUS59 KLOT 110957
HRRLOT

CHICAGO AREA WEATHER ROUNDUP
NATIONAL WEATHER SERVICE CHICAGO/ROMEOVILLE IL
400 AM CST SUN DEC 11 2016

NOTE: "FAIR" INDICATES FEW OR NO CLOUDS BELOW 12,000 FEET WITH NO
SIGNIFICANT WEATHER AND/OR OBSTRUCTIONS TO VISIBILITY.

* THESE STATIONS ARE NOT UNDER NWS QUALITY CONTROL. THEY ALSO MAY NOT
  REPORT WEATHER SUCH AS PRECIPITATION OR FOG.

ILZ005-006-012>014-019>023-111100-
NORTHEAST ILLINOIS

CITY           SKY/WX    TMP DP  RH WIND       PRES   REMARKS
OHARE          LGT SNOW  25  22  88 SE10      30.15F FOG     WCI  15
MIDWAY         NOT AVBL
AURORA         NOT AVBL
WAUKEGAN       LGT SNOW  26  23  88 S9        30.15F FOG     WCI  17
DUPAGE AIRPORT LGT SNOW  25  21  86 SE12      30.13F FOG     WCI  14
WHEELING       NOT AVBL
NORTHERLY ISL    N/A     27  26  96 SE15        N/A  WCI  15
$$

WIZ051-052-058>065-066-070>072-111100-
SOUTHEAST WISCONSIN

CITY           SKY/WX    TMP DP  RH WIND       PRES   REMARKS
MILWAUKEE      NOT AVBL
KENOSHA*       LGT SNOW  25  23  92 S8        30.15F FOG     WCI  16
RACINE*        LGT SNOW  27  23  86 S8        30.17F FOG     WCI  18
$$

INZ001>003-010>013-019-020-111100-
NORTHWEST INDIANA

CITY           SKY/WX    TMP DP  RH WIND       PRES   REMARKS
GARY*          NOT AVBL
MICHIGAN CITY* NOT AVBL
RENSSELAER*    NOT AVBL
VALPARAISO     LGT SNOW  25  22  88 MISG      30.20F VSB 1
$$

LMZ740>746-111100-
SOUTHERN LAKE MICHIGAN

STATION/POSITION TIME  SKY/WX   TEMP WIND        PRES    VSBY
                                AIR  DIR/SP/G
                 (UTC)          (F)  (DEG/KT/KT) (MB)    (MI)
HARRISON CRIB    NOT AVBL
BURNHAM HARBOR   0945            27  160/ 11/ 14   N/A
CALUMET HARBOR   0930            26  130/ 12/ 15 1021.4F
BURNS HARBOR     0940            25  140/ 12/ 17 1023.0F
MICHIGAN CITY    NOT AVBL
$$

ABBREVIATIONS USED IN REMARKS
   TC - TEMPERATURE IN CELSIUS
  WCI - WIND CHILL INDEX
   HX - HEAT INDEX
  VSB - VISIBILITY
$$




USA.gov is the U.S. government's official web portal to all federal, state and local government web resources and services.